星链-3799 (STARLINK-3799 )

导读 | 豆包AI

STARLINK-3799是美国SpaceX星链星座的低轨宽带通信卫星,于2022年4月29日发射入轨。作为星链组网卫星之一,它为全球范围内高速低延迟卫星互联网服务提供支撑,可向偏远地区、移动载体提供宽带接入,助力构建空天地一体化网络,支撑家庭、漫游、海上等多场景的互联网接入需求,推进全球覆盖的卫星互联网部署进程。

Basic Information
目录编号:
52382
目录名称:
STARLINK-3799
国际标识:
2022-045BD
轨道中心:
EARTH
卫星名称:
星链-3799
卫星全名:
星链-3799 (STARLINK-3799 )
卫星状态:
在轨 (已飞行1416 天)
发射日期:
2022-04-29 UTC
国别 :
美国 (US)
星等 :
--
Orbit Information
数据来源 国际轨道数据 AOE轨道数据
星历时间 2026-03-14T21:31:52+0800
11小时前
查看轨道信息
2026-03-14T08:00:00+0800
1天前
查看轨道信息
半长轴 6916.696km 6916.762km
偏心率 0.0001449 0.0001921
轨道倾角 53.215° 53.217°
近地点辐角 59.548° 56.917°
升交点赤经 167.230° 169.765°
平近点角 300.565° 118.250°
近地点 537.556km 537.296km
远地点 539.562km 539.954km
周期 95.413分钟 95.414分钟
每日圈数 15.092278 15.09206
Detailed Information
固有亮度:
5
最大亮度:
2.5
卫星平台:
Starlink v1.5
覆盖范围:
全球
运营商:
太空探索技术公司
运营商所在国:
美国
制造商(研发单位):
太空探索技术公司
制造商所在国:
美国
使用方式:
暂无
Satellite Introduction
星链(Starlink)计划是由太空探索技术公司(SpaceX)提出的一个巨型低轨卫星互联网星座项目,计划在2019年至2024年间在太空搭建由约1.2万颗卫星组成的“星链”网络,其中1584颗将部署在地球上空550千米处的近地轨道,并从2020年开始工作。该卫星仍在工作。
2D Orbit Map
3D Orbit Map
Orbit Altitude Analysis Chart
Orbit Inclination Analysis Chart
Orbit Comprehensive Analysis Chart
View Comprehensive Chart